StationID,Date,MaxTemp,MinTemp,Precipitation,Snowfall,SnowDepth
"USR0000AKLA","1991-06-10",424.94,420.08,,,
"USR0000AKLA","1991-06-11",424.94,420.98,,,
"USR0000AKLA","1991-06-12",426.02,420.08,,,
"USR0000AKLA","1991-06-13",424.94,420.08,,,
"USR0000AKLA","1991-06-14",424.94,420.08,,,
"USR0000AKLA","1991-06-15",424.94,420.08,,,
"USR0000AKLA","1991-06-16",424.94,420.08,,,
"USR0000AKLA","1991-06-17",422.96,420.08,,,
"USR0000AKLA","1991-06-18",424.94,420.08,,,
"USR0000AKLA","1991-06-19",422.96,420.08,,,
"USR0000AKLA","1991-06-20",422.06,420.08,,,
"USR0000AKLA","1991-06-21",424.94,420.98,,,
"USR0000AKLA","1991-06-22",422.96,420.98,,,
"USR0000AKLA","1991-06-23",426.02,420.98,,,
"USR0000AKLA","1991-06-24",424.94,50.00,,,
"USR0000AKLA","1991-06-25",69.98,44.06,,,
"USR0000AKLA","1991-06-26",69.98,48.92,,,
"USR0000AKLA","1991-06-27",68.00,51.08,,,
"USR0000AKLA","1991-06-28",71.06,48.92,,,
"USR0000AKLA","1991-06-29",77.00,48.02,,,
"USR0000AKLA","1991-06-30",73.04,51.08,,,
"USR0000AKLA","1991-07-01",59.00,46.94,,,
"USR0000AKLA","1991-07-02",66.02,39.02,,,
"USR0000AKLA","1991-07-03",55.94,48.92,,,
"USR0000AKLA","1991-07-04",51.98,46.94,,,
"USR0000AKLA","1991-07-05",55.04,44.96,,,
"USR0000AKLA","1991-07-06",60.08,46.04,,,
"USR0000AKLA","1991-07-07",64.94,44.96,,,
"USR0000AKLA","1991-07-08",51.98,42.98,,,
"USR0000AKLA","1991-07-09",53.96,42.08,,,
"USR0000AKLA","1991-07-10",48.92,39.92,,,
"USR0000AKLA","1991-07-11",53.06,42.08,,,
"USR0000AKLA","1991-07-12",55.94,42.98,,,
"USR0000AKLA","1991-07-13",60.08,44.06,,,
"USR0000AKLA","1991-07-14",64.94,42.98,,,
"USR0000AKLA","1991-07-15",64.94,39.92,,,
"USR0000AKLA","1991-07-16",53.06,44.06,,,
"USR0000AKLA","1991-07-17",53.96,44.96,,,
"USR0000AKLA","1991-07-18",59.00,39.02,,,
"USR0000AKLA","1991-07-19",55.04,42.98,,,
"USR0000AKLA","1991-07-20",59.00,42.08,,,
"USR0000AKLA","1991-07-21",69.08,39.92,,,
"USR0000AKLA","1991-07-22",404.96,48.02,,,
"USR0000AKLA","1991-07-23",57.02,42.98,,,
"USR0000AKLA","1991-07-24",57.92,42.98,,,
"USR0000AKLA","1991-07-25",64.94,39.02,,,
"USR0000AKLA","1991-07-26",64.94,44.06,,,
"USR0000AKLA","1991-07-27",68.00,42.08,,,
"USR0000AKLA","1991-07-28",64.94,44.96,,,
"USR0000AKLA","1991-07-29",51.98,46.94,,,
"USR0000AKLA","1991-07-30",53.06,46.04,,,
"USR0000AKLA","1991-07-31",55.04,44.06,,,
"USR0000AKLA","1991-08-01",53.96,42.08,,,
"USR0000AKLA","1991-08-02",53.06,39.92,,,
"USR0000AKLA","1991-08-03",46.94,35.96,,,
"USR0000AKLA","1991-08-04",55.94,37.04,,,
"USR0000AKLA","1991-08-05",55.04,44.96,,,
"USR0000AKLA","1991-08-06",55.94,44.06,,,
"USR0000AKLA","1991-08-07",60.08,41.00,,,
"USR0000AKLA","1991-08-08",68.00,44.06,,,
"USR0000AKLA","1991-08-09",62.06,51.98,,,
"USR0000AKLA","1991-08-10",59.00,50.00,,,
"USR0000AKLA","1991-08-11",57.92,46.94,,,
"USR0000AKLA","1991-08-12",57.92,46.04,,,
"USR0000AKLA","1991-08-13",305.06,46.94,,,
"USR0000AKLA","1991-08-14",62.96,50.00,,,
"USR0000AKLA","1991-08-15",60.08,48.92,,,
"USR0000AKLA","1991-08-16",64.94,51.08,,,
"USR0000AKLA","1991-08-17",62.96,44.96,,,
"USR0000AKLA","1991-08-18",55.94,39.02,,,
"USR0000AKLA","1991-08-19",60.98,39.02,,,
"USR0000AKLA","1991-08-20",60.08,39.02,,,
"USR0000AKLA","1991-08-21",44.06,39.92,,,
"USR0000AKLA","1992-06-08",59.00,41.00,,,
"USR0000AKLA","1992-06-09",66.02,37.94,,,
"USR0000AKLA","1992-06-10",69.08,46.04,,,
"USR0000AKLA","1992-06-11",71.06,48.92,,,
"USR0000AKLA","1992-06-12",71.96,48.92,,,
"USR0000AKLA","1992-06-13",66.92,50.00,,,
"USR0000AKLA","1992-06-14",68.00,41.00,,,
"USR0000AKLA","1992-06-15",55.94,42.98,,,
"USR0000AKLA","1992-06-16",44.96,39.02,,,
"USR0000AKLA","1992-06-17",53.06,39.92,,,
"USR0000AKLA","1992-06-18",55.94,37.94,,,
"USR0000AKLA","1992-06-19",57.92,39.92,,,
"USR0000AKLA","1992-06-20",64.04,37.94,,,
"USR0000AKLA","1993-05-21",53.06,48.92,,,
"USR0000AKLA","1993-06-07",46.04,37.94,,,
"USR0000AKLA","1993-06-08",55.94,37.04,,,
"USR0000AKLA","1993-06-09",55.94,33.98,,,
"USR0000AKLA","1993-06-10",60.08,33.08,,,
"USR0000AKLA","1993-06-11",60.08,41.00,,,
"USR0000AKLA","1993-06-12",62.96,37.04,,,
"USR0000AKLA","1993-06-13",64.94,41.00,,,
"USR0000AKLA","1993-06-14",71.06,44.96,,,
"USR0000AKLA","1993-06-15",62.96,46.94,,,
"USR0000AKLA","1993-06-16",53.96,42.98,,,
"USR0000AKLA","1993-06-17",55.94,42.98,,,
"USR0000AKLA","1993-06-18",57.02,44.06,,,
"USR0000AKLA","1993-06-19",59.00,42.08,,,
"USR0000AKLA","1993-06-20",60.08,42.08,,,
"USR0000AKLA","1993-06-21",53.96,39.92,,,
"USR0000AKLA","1993-06-22",55.94,44.06,,,
"USR0000AKLA","1993-06-23",57.92,44.06,,,
"USR0000AKLA","1993-06-24",64.94,39.02,,,
"USR0000AKLA","1993-06-25",51.08,42.98,,,
"USR0000AKLA","1993-06-26",60.98,44.96,,,
"USR0000AKLA","1993-06-27",62.06,46.04,,,
"USR0000AKLA","1993-06-28",64.94,44.06,,,
"USR0000AKLA","1993-06-29",64.94,46.04,,,
"USR0000AKLA","1993-06-30",60.08,44.96,,,
"USR0000AKLA","1993-07-01",62.06,44.96,,,
"USR0000AKLA","1993-07-02",55.04,42.98,,,
"USR0000AKLA","1993-07-03",60.98,42.98,,,
"USR0000AKLA","1993-07-04",57.92,44.96,,,
"USR0000AKLA","1993-07-05",48.92,41.00,,,
"USR0000AKLA","1993-07-06",55.94,42.08,,,
"USR0000AKLA","1993-07-07",60.08,39.02,,,
"USR0000AKLA","1993-07-08",60.98,41.00,,,
"USR0000AKLA","1993-07-09",66.92,37.94,,,
"USR0000AKLA","1993-07-10",66.92,46.04,,,
"USR0000AKLA","1993-07-11",66.92,44.06,,,
"USR0000AKLA","1993-07-12",73.94,53.06,,,
"USR0000AKLA","1993-07-13",77.00,53.96,,,
"USR0000AKLA","1993-07-14",80.96,48.92,,,
"USR0000AKLA","1993-07-15",80.06,55.04,,,
"USR0000AKLA","1993-07-16",78.08,57.92,,,
"USR0000AKLA","1993-07-17",73.04,57.02,,,
"USR0000AKLA","1993-07-18",75.02,71.06,,,
"USR0000AKLA","1993-07-19",73.04,53.96,,,
"USR0000AKLA","1993-07-20",68.00,51.08,,,
"USR0000AKLA","1993-07-21",59.00,44.06,,,
"USR0000AKLA","1993-07-22",64.94,46.04,,,
"USR0000AKLA","1993-07-23",62.06,53.06,,,
"USR0000AKLA","1993-07-24",66.02,53.96,,,
"USR0000AKLA","1993-07-25",57.92,48.02,,,
"USR0000AKLA","1993-07-26",55.94,48.92,,,
"USR0000AKLA","1993-07-27",68.00,46.94,,,
"USR0000AKLA","1993-07-28",69.98,50.00,,,
"USR0000AKLA","1993-07-29",73.04,53.96,,,
"USR0000AKLA","1993-07-30",69.98,51.98,,,
"USR0000AKLA","1993-07-31",66.92,53.96,,,
"USR0000AKLA","1993-08-01",60.98,53.06,,,
"USR0000AKLA","1993-08-02",60.98,50.00,,,
"USR0000AKLA","1993-08-03",66.02,48.02,,,
"USR0000AKLA","1993-08-04",60.98,46.94,,,
"USR0000AKLA","1993-08-05",62.96,44.96,,,
"USR0000AKLA","1993-08-06",55.04,48.92,,,
"USR0000AKLA","1993-08-07",62.96,46.94,,,
"USR0000AKLA","1993-08-08",62.06,39.92,,,
"USR0000AKLA","1993-08-09",66.92,48.02,,,
"USR0000AKLA","1993-08-10",66.02,51.98,,,
"USR0000AKLA","1993-08-11",59.00,48.02,,,
"USR0000AKLA","1993-08-12",60.08,51.08,,,
"USR0000AKLA","1993-08-13",60.08,51.08,,,
"USR0000AKLA","1993-08-14",57.92,48.02,,,
"USR0000AKLA","1993-08-15",55.94,46.94,,,
"USR0000AKLA","1993-08-16",57.02,42.98,,,
"USR0000AKLA","1993-08-17",51.98,37.04,,,
"USR0000AKLA","1993-08-18",53.96,44.06,,,
"USR0000AKLA","1993-08-19",55.94,44.06,,,
"USR0000AKLA","1993-08-20",51.98,42.08,,,
"USR0000AKLA","1993-08-21",53.96,42.08,,,
"USR0000AKLA","1993-08-22",50.00,37.04,,,
"USR0000AKLA","1993-08-23",51.98,30.92,,,
"USR0000AKLA","1993-08-24",55.04,39.02,,,
"USR0000AKLA","1993-08-25",60.98,37.94,,,
"USR0000AKLA","1993-08-26",62.06,42.98,,,
"USR0000AKLA","1993-08-27",64.94,46.04,,,
"USR0000AKLA","1993-08-28",59.00,41.00,,,
"USR0000AKLA","1993-08-29",55.94,48.92,,,
"USR0000AKLA","1993-08-30",60.98,51.98,,,
"USR0000AKLA","1993-08-31",60.08,51.98,,,
"USR0000AKLA","1993-09-01",60.98,50.00,,,
"USR0000AKLA","1993-09-02",55.04,44.96,,,
"USR0000AKLA","1993-09-03",57.92,41.00,,,
"USR0000AKLA","1993-09-04",53.06,48.02,,,
"USR0000AKLA","1993-09-05",59.00,50.00,,,
"USR0000AKLA","1993-09-06",57.02,46.94,,,
"USR0000AKLA","1993-09-07",55.94,44.06,,,
"USR0000AKLA","1993-09-08",55.04,39.92,,,
"USR0000AKLA","1993-09-09",51.08,41.00,,,
"USR0000AKLA","1993-09-10",51.08,33.08,,,
"USR0000AKLA","1993-09-11",51.98,32.00,,,
"USR0000AKLA","1993-09-12",48.92,37.94,,,
"USR0000AKLA","1993-09-13",46.04,35.06,,,
"USR0000AKLA","1993-09-14",57.02,33.08,,,
"USR0000AKLA","1993-09-15",60.08,39.02,,,
"USR0000AKLA","1993-09-16",51.98,37.04,,,
"USR0000AKLA","1993-09-17",33.98,21.02,,,
"USR0000AKLA","1993-09-18",39.02,17.96,,,
"USR0000AKLA","1993-09-19",42.08,33.08,,,
"USR0000AKLA","1993-09-20",48.02,37.94,,,
"USR0000AKLA","1993-09-21",41.00,35.96,,,
"USR0000AKLA","1993-09-22",35.96,19.94,,,
"USR0000AKLA","1993-09-23",37.94,21.02,,,
"USR0000AKLA","1993-09-24",41.00,26.06,,,
"USR0000AKLA","1993-09-25",39.02,26.96,,,
"USR0000AKLA","1993-09-26",37.94,28.04,,,
"USR0000AKLA","1993-09-27",37.04,30.02,,,
"USR0000AKLA","1993-09-28",46.94,32.00,,,
"USR0000AKLA","1993-09-29",39.92,32.00,,,
"USR0000AKLA","1993-09-30",51.08,39.02,,,
"USR0000AKLA","1993-10-01",48.02,35.96,,,
"USR0000AKLA","1993-10-02",42.08,26.06,,,
"USR0000AKLA","1993-10-03",33.98,23.00,,,
"USR0000AKLA","1993-10-04",37.94,24.08,,,
"USR0000AKLA","1993-10-05",41.00,21.92,,,
"USR0000AKLA","1993-10-06",53.06,26.06,,,
"USR0000AKLA","1993-10-07",55.94,42.08,,,
"USR0000AKLA","1993-10-08",53.06,44.96,,,
"USR0000AKLA","1993-10-09",50.00,42.98,,,
"USR0000AKLA","1993-10-10",50.00,37.94,,,
"USR0000AKLA","1993-10-11",37.94,33.98,,,
"USR0000AKLA","1993-10-12",39.02,30.92,,,
"USR0000AKLA","1993-10-13",41.00,30.92,,,
"USR0000AKLA","1993-10-14",37.94,28.94,,,
"USR0000AKLA","1993-10-15",33.98,30.92,,,
"USR0000AKLA","1993-10-16",39.02,30.02,,,
"USR0000AKLA","1993-10-17",37.94,26.96,,,
"USR0000AKLA","1993-10-18",30.92,21.92,,,
"USR0000AKLA","1993-10-19",30.92,12.92,,,
"USR0000AKLA","1993-10-20",24.08,12.92,,,
"USR0000AKLA","1993-10-21",24.08,14.00,,,
"USR0000AKLA","1993-10-22",23.00,8.96,,,
"USR0000AKLA","1993-10-23",19.94,6.08,,,
"USR0000AKLA","1993-10-24",17.96,10.04,,,
"USR0000AKLA","1993-10-25",37.04,19.94,,,
"USR0000AKLA","1993-10-26",37.94,26.96,,,
"USR0000AKLA","1993-10-27",37.04,28.04,,,
"USR0000AKLA","1993-10-28",39.02,21.92,,,
"USR0000AKLA","1993-10-29",37.94,30.02,,,
"USR0000AKLA","1993-10-30",35.96,24.08,,,
"USR0000AKLA","1993-10-31",28.94,21.02,,,
"USR0000AKLA","1993-11-01",19.94,15.98,,,
"USR0000AKLA","1993-11-02",15.98,6.98,,,
"USR0000AKLA","1993-11-03",17.06,5.00,,,
"USR0000AKLA","1993-11-04",26.06,8.96,,,
"USR0000AKLA","1993-11-05",32.00,19.04,,,
"USR0000AKLA","1993-11-06",33.98,21.02,,,
"USR0000AKLA","1993-11-07",37.04,33.08,,,
"USR0000AKLA","1993-11-08",35.96,30.92,,,
"USR0000AKLA","1993-11-09",39.02,33.98,,,
"USR0000AKLA","1993-11-10",37.94,17.96,,,
"USR0000AKLA","1993-11-11",33.98,21.02,,,
"USR0000AKLA","1993-11-12",33.08,28.04,,,
"USR0000AKLA","1993-11-13",33.98,24.98,,,
"USR0000AKLA","1993-11-14",24.98,17.06,,,
"USR0000AKLA","1993-11-15",15.98,-0.04,,,
"USR0000AKLA","1993-11-16",8.96,3.02,,,
"USR0000AKLA","1993-11-17",14.00,5.00,,,
"USR0000AKLA","1993-11-18",12.92,6.08,,,
"USR0000AKLA","1993-11-19",6.98,-14.08,,,
"USR0000AKLA","1993-11-20",-11.92,-22.00,,,
"USR0000AKLA","1993-11-21",-5.98,-14.08,,,
"USR0000AKLA","1993-11-22",30.92,-2.92,,,
"USR0000AKLA","1993-11-23",28.04,23.00,,,
"USR0000AKLA","1993-11-24",33.98,21.92,,,
"USR0000AKLA","1993-11-25",28.04,12.92,,,
"USR0000AKLA","1993-11-26",21.02,6.08,,,
"USR0000AKLA","1993-11-27",15.08,6.08,,,
"USR0000AKLA","1993-11-28",10.04,3.92,,,
"USR0000AKLA","1993-11-29",8.96,-2.02,,,
"USR0000AKLA","1993-11-30",6.98,-0.04,,,
"USR0000AKLA","1993-12-01",12.92,1.04,,,
"USR0000AKLA","1993-12-02",30.02,10.04,,,
"USR0000AKLA","1993-12-03",15.08,1.04,,,
"USR0000AKLA","1993-12-04",5.00,-2.02,,,
"USR0000AKLA","1993-12-05",37.04,1.04,,,
"USR0000AKLA","1993-12-06",35.96,24.08,,,
"USR0000AKLA","1993-12-07",24.08,6.08,,,
"USR0000AKLA","1993-12-08",3.92,-9.94,,,
"USR0000AKLA","1993-12-09",-0.04,-14.08,,,
"USR0000AKLA","1993-12-10",1.94,-9.94,,,
"USR0000AKLA","1993-12-11",24.08,-5.98,,,
"USR0000AKLA","1993-12-12",17.06,-0.94,,,
"USR0000AKLA","1993-12-13",6.08,-2.92,,,
"USR0000AKLA","1993-12-14",15.98,-5.08,,,
"USR0000AKLA","1993-12-15",30.92,14.00,,,
"USR0000AKLA","1993-12-16",30.02,10.94,,,
"USR0000AKLA","1993-12-17",30.02,21.92,,,
"USR0000AKLA","1993-12-18",37.94,26.96,,,
"USR0000AKLA","1993-12-19",37.94,21.92,,,
"USR0000AKLA","1993-12-20",30.02,23.00,,,
"USR0000AKLA","1993-12-21",33.98,17.96,,,
"USR0000AKLA","1993-12-22",35.96,19.04,,,
"USR0000AKLA","1993-12-23",35.06,30.02,,,
"USR0000AKLA","1993-12-24",33.08,17.96,,,
"USR0000AKLA","1993-12-25",30.02,15.08,,,
"USR0000AKLA","1993-12-26",30.02,17.96,,,
"USR0000AKLA","1993-12-28",35.06,14.00,,,
"USR0000AKLA","1993-12-29",37.04,15.98,,,
"USR0000AKLA","1993-12-30",24.98,14.00,,,
"USR0000AKLA","1993-12-31",15.98,5.00,,,
"USR0000AKLA","1994-01-01",8.96,-0.04,,,
"USR0000AKLA","1994-01-02",8.96,1.94,,,
"USR0000AKLA","1994-01-03",6.98,-2.92,,,
"USR0000AKLA","1994-01-04",3.02,-4.00,,,
"USR0000AKLA","1994-01-05",3.92,-5.98,,,
"USR0000AKLA","1994-01-06",-2.92,-4.00,,,
"USR0000AKLA","1994-01-18",21.92,19.94,,,
"USR0000AKLA","1994-01-19",23.00,3.92,,,
"USR0000AKLA","1994-01-20",19.04,8.06,,,
"USR0000AKLA","1994-01-21",12.92,5.00,,,
"USR0000AKLA","1994-01-22",17.96,8.96,,,
"USR0000AKLA","1994-01-23",17.06,8.96,,,
"USR0000AKLA","1994-01-24",35.96,8.96,,,
"USR0000AKLA","1994-01-25",30.02,21.92,,,
"USR0000AKLA","1994-01-26",30.02,12.92,,,
"USR0000AKLA","1994-01-27",35.96,21.92,,,
"USR0000AKLA","1994-01-28",32.00,19.94,,,
"USR0000AKLA","1994-01-29",42.98,23.00,,,
"USR0000AKLA","1994-01-30",46.94,30.92,,,
"USR0000AKLA","1994-01-31",46.04,30.92,,,
"USR0000AKLA","1994-02-01",42.98,26.96,,,
"USR0000AKLA","1994-02-02",44.06,32.00,,,
"USR0000AKLA","1994-02-03",39.02,35.06,,,
"USR0000AKLA","1994-02-04",35.96,19.94,,,
"USR0000AKLA","1994-02-05",24.08,14.00,,,
"USR0000AKLA","1994-02-06",12.02,3.02,,,
"USR0000AKLA","1994-02-07",14.00,3.02,,,
"USR0000AKLA","1994-02-08",12.02,-0.04,,,
"USR0000AKLA","1994-02-09",8.06,-0.94,,,
"USR0000AKLA","1994-02-10",8.96,-0.94,,,
"USR0000AKLA","1994-02-11",-2.92,-11.92,,,
"USR0000AKLA","1994-02-12",-0.94,-16.06,,,
"USR0000AKLA","1994-02-13",-7.06,-18.94,,,
"USR0000AKLA","1994-02-14",-4.00,-18.94,,,
"USR0000AKLA","1994-02-15",6.98,-14.08,,,
"USR0000AKLA","1994-02-16",8.06,-11.92,,,
"USR0000AKLA","1994-02-17",1.94,-16.06,,,
"USR0000AKLA","1994-02-18",-0.94,-18.94,,,
"USR0000AKLA","1994-02-19",-7.06,-23.98,,,
"USR0000AKLA","1994-02-20",-11.02,-25.06,,,
"USR0000AKLA","1994-02-21",-11.02,-22.00,,,
"USR0000AKLA","1994-02-22",-5.08,-22.00,,,
"USR0000AKLA","1994-02-23",1.04,-16.96,,,
"USR0000AKLA","1994-02-24",5.00,-18.04,,,
"USR0000AKLA","1994-02-25",3.02,-20.02,,,
"USR0000AKLA","1994-02-26",6.98,-18.94,,,
"USR0000AKLA","1994-02-27",-4.00,-18.94,,,
"USR0000AKLA","1994-02-28",28.04,-9.04,,,
"USR0000AKLA","1994-03-01",33.98,26.06,,,
"USR0000AKLA","1994-03-02",33.08,19.94,,,
"USR0000AKLA","1994-03-03",23.00,10.04,,,
"USR0000AKLA","1994-03-04",14.00,3.92,,,
"USR0000AKLA","1994-03-05",6.98,-4.00,,,
"USR0000AKLA","1994-03-06",15.98,-0.94,,,
"USR0000AKLA","1994-03-07",35.06,14.00,,,
"USR0000AKLA","1994-03-08",33.98,28.04,,,
"USR0000AKLA","1994-03-09",35.06,28.04,,,
"USR0000AKLA","1994-03-10",35.96,19.94,,,
"USR0000AKLA","1994-03-11",30.92,19.94,,,
"USR0000AKLA","1994-03-12",33.08,17.96,,,
"USR0000AKLA","1994-03-13",33.08,26.96,,,
"USR0000AKLA","1994-03-14",35.96,23.00,,,
"USR0000AKLA","1994-03-15",35.06,17.96,,,
"USR0000AKLA","1994-03-16",24.98,3.92,,,
"USR0000AKLA","1994-03-17",14.00,-4.00,,,
"USR0000AKLA","1994-03-18",8.96,-5.08,,,
"USR0000AKLA","1994-03-19",6.08,-7.06,,,
"USR0000AKLA","1994-03-20",3.92,-9.94,,,
"USR0000AKLA","1994-03-21",6.08,-11.02,,,
"USR0000AKLA","1994-03-22",24.08,-5.08,,,
"USR0000AKLA","1994-03-23",30.02,23.00,,,
"USR0000AKLA","1994-03-24",35.96,26.96,,,
"USR0000AKLA","1994-03-25",37.94,26.96,,,
"USR0000AKLA","1994-03-26",39.92,24.98,,,
"USR0000AKLA","1994-03-27",33.98,23.00,,,
"USR0000AKLA","1994-03-28",37.94,17.06,,,
"USR0000AKLA","1994-03-29",44.06,24.98,,,
"USR0000AKLA","1994-03-30",41.00,33.08,,,
"USR0000AKLA","1994-03-31",44.96,30.02,,,
"USR0000AKLA","1994-04-01",44.96,33.98,,,
"USR0000AKLA","1994-04-02",44.96,26.96,,,
"USR0000AKLA","1994-04-03",44.96,26.06,,,
"USR0000AKLA","1994-04-04",41.00,24.08,,,
"USR0000AKLA","1994-04-05",44.96,24.08,,,
"USR0000AKLA","1994-04-06",41.00,24.08,,,
"USR0000AKLA","1994-04-07",39.02,17.06,,,
"USR0000AKLA","1994-04-08",35.96,28.94,,,
"USR0000AKLA","1994-04-09",37.94,24.08,,,
"USR0000AKLA","1994-04-10",35.06,23.00,,,
"USR0000AKLA","1994-04-11",37.94,28.94,,,
"USR0000AKLA","1994-04-12",35.96,19.94,,,
"USR0000AKLA","1994-04-13",33.08,19.94,,,
"USR0000AKLA","1994-04-14",33.98,12.92,,,
"USR0000AKLA","1994-04-15",30.92,14.00,,,
"USR0000AKLA","1994-04-16",23.00,6.98,,,
"USR0000AKLA","1994-04-17",33.98,15.98,,,
"USR0000AKLA","1994-04-18",37.94,30.02,,,
"USR0000AKLA","1994-04-19",42.98,23.00,,,
"USR0000AKLA","1994-04-20",50.00,33.98,,,
"USR0000AKLA","1994-04-21",50.00,33.08,,,
"USR0000AKLA","1994-04-22",51.08,35.96,,,
"USR0000AKLA","1994-04-23",51.08,32.00,,,
"USR0000AKLA","1994-04-24",53.96,30.92,,,
"USR0000AKLA","1994-04-25",55.04,32.00,,,
"USR0000AKLA","1994-04-26",53.96,39.02,,,
"USR0000AKLA","1994-04-27",46.04,33.98,,,
"USR0000AKLA","1994-04-28",46.94,30.02,,,
"USR0000AKLA","1994-04-29",46.04,28.94,,,
"USR0000AKLA","1994-04-30",42.98,30.92,,,
"USR0000AKLA","1994-05-01",46.94,26.06,,,
"USR0000AKLA","1994-05-02",48.92,32.00,,,
"USR0000AKLA","1994-05-03",42.08,30.02,,,
"USR0000AKLA","1994-05-04",39.02,28.94,,,
"USR0000AKLA","1994-05-05",42.08,32.00,,,
"USR0000AKLA","1994-05-06",42.98,33.98,,,
"USR0000AKLA","1994-05-07",42.08,26.96,,,
"USR0000AKLA","1994-05-08",37.94,24.98,,,
"USR0000AKLA","1994-05-09",46.94,30.92,,,
"USR0000AKLA","1994-05-10",53.96,33.98,,,
"USR0000AKLA","1994-05-11",51.98,30.02,,,
"USR0000AKLA","1994-05-12",50.00,35.96,,,
"USR0000AKLA","1994-05-13",53.06,30.02,,,
"USR0000AKLA","1994-05-14",53.06,33.08,,,
"USR0000AKLA","1994-05-15",57.92,30.92,,,
"USR0000AKLA","1994-05-16",55.94,33.98,,,
"USR0000AKLA","1994-05-17",55.94,41.00,,,
"USR0000AKLA","1994-05-18",55.04,37.94,,,
"USR0000AKLA","1994-05-19",50.00,35.06,,,
"USR0000AKLA","1994-05-20",44.96,35.06,,,
"USR0000AKLA","1994-05-21",44.96,33.98,,,
"USR0000AKLA","1994-05-22",55.94,33.98,,,
"USR0000AKLA","1994-05-23",55.94,33.98,,,
"USR0000AKLA","1994-05-24",46.04,32.00,,,
"USR0000AKLA","1994-05-25",37.94,33.08,,,
"USR0000AKLA","1994-05-26",42.08,33.08,,,
"USR0000AKLA","1994-05-27",42.98,33.08,,,
"USR0000AKLA","1994-05-28",48.02,33.98,,,
"USR0000AKLA","1994-05-29",51.98,32.00,,,
"USR0000AKLA","1994-05-30",51.98,35.96,,,
"USR0000AKLA","1994-05-31",57.02,33.98,,,
"USR0000AKLA","1994-06-01",55.94,35.06,,,
"USR0000AKLA","1994-06-02",55.04,39.02,,,
"USR0000AKLA","1994-06-03",59.00,37.04,,,
"USR0000AKLA","1994-06-04",59.00,35.96,,,
"USR0000AKLA","1994-06-05",53.96,39.02,,,
"USR0000AKLA","1994-06-06",51.98,37.04,,,
"USR0000AKLA","1994-06-07",51.98,39.02,,,
"USR0000AKLA","1994-06-08",57.92,37.94,,,
"USR0000AKLA","1994-06-09",62.06,35.06,,,
"USR0000AKLA","1994-06-10",55.04,39.92,,,
"USR0000AKLA","1994-06-11",66.92,37.04,,,
"USR0000AKLA","1994-06-12",69.98,44.96,,,
"USR0000AKLA","1994-06-13",75.92,44.06,,,
"USR0000AKLA","1994-06-14",77.00,50.00,,,
"USR0000AKLA","1994-06-15",75.02,51.08,,,
"USR0000AKLA","1994-06-16",64.94,42.98,,,
"USR0000AKLA","1994-06-17",60.98,44.06,,,
"USR0000AKLA","1994-06-18",60.08,48.02,,,
"USR0000AKLA","1994-06-19",57.92,44.96,,,
"USR0000AKLA","1994-06-20",55.04,46.94,,,
"USR0000AKLA","1994-06-21",53.96,48.92,,,
"USR0000AKLA","1994-06-22",62.96,46.94,,,
"USR0000AKLA","1994-06-23",64.94,44.96,,,
"USR0000AKLA","1994-06-24",60.08,44.06,,,
"USR0000AKLA","1994-06-25",48.92,41.00,,,
"USR0000AKLA","1994-06-26",53.06,39.02,,,
"USR0000AKLA","1994-06-27",53.06,39.92,,,
"USR0000AKLA","1994-06-28",53.96,37.94,,,
"USR0000AKLA","1994-06-29",57.92,37.94,,,
"USR0000AKLA","1994-06-30",66.92,35.96,,,
"USR0000AKLA","1994-07-01",69.98,46.94,,,
"USR0000AKLA","1994-07-02",62.06,46.94,,,
"USR0000AKLA","1994-07-03",62.96,44.06,,,
"USR0000AKLA","1994-07-04",51.98,44.96,,,
"USR0000AKLA","1994-07-05",51.98,44.06,,,
"USR0000AKLA","1994-07-06",53.96,42.08,,,
"USR0000AKLA","1994-07-07",66.02,39.92,,,
"USR0000AKLA","1994-07-08",66.92,44.06,,,
"USR0000AKLA","1994-07-09",60.98,44.06,,,
"USR0000AKLA","1994-07-10",66.02,39.02,,,
"USR0000AKLA","1994-07-11",71.06,44.96,,,
"USR0000AKLA","1994-07-12",71.96,46.04,,,
"USR0000AKLA","1994-07-13",71.96,50.00,,,
"USR0000AKLA","1994-07-14",69.98,46.94,,,
"USR0000AKLA","1994-07-15",66.92,46.94,,,
"USR0000AKLA","1994-07-16",62.96,44.96,,,
"USR0000AKLA","1994-07-17",62.96,44.96,,,
"USR0000AKLA","1994-07-18",55.94,48.02,,,
"USR0000AKLA","1994-07-19",59.00,44.96,,,
"USR0000AKLA","1994-07-20",60.08,44.96,,,
"USR0000AKLA","1994-07-21",55.04,46.94,,,
"USR0000AKLA","1994-07-22",62.96,46.94,,,
"USR0000AKLA","1994-07-23",62.96,44.06,,,
"USR0000AKLA","1994-07-24",64.94,48.92,,,
"USR0000AKLA","1994-07-25",69.98,48.02,,,
"USR0000AKLA","1994-07-26",55.94,48.92,,,
"USR0000AKLA","1994-07-27",66.02,37.94,,,
"USR0000AKLA","1994-07-28",68.00,44.96,,,
"USR0000AKLA","1994-07-29",69.98,48.02,,,
"USR0000AKLA","1994-07-30",62.06,55.04,,,
"USR0000AKLA","1994-07-31",66.92,51.98,,,
"USR0000AKLA","1994-08-01",75.92,51.08,,,
"USR0000AKLA","1994-08-02",73.04,51.98,,,
"USR0000AKLA","1994-08-03",75.02,55.04,,,
"USR0000AKLA","1994-08-04",80.96,51.08,,,
"USR0000AKLA","1994-08-05",84.02,53.06,,,
"USR0000AKLA","1994-08-06",78.08,51.98,,,
"USR0000AKLA","1994-08-07",77.00,53.96,,,
"USR0000AKLA","1994-08-08",75.02,48.92,,,
"USR0000AKLA","1994-08-09",75.92,53.06,,,
"USR0000AKLA","1994-08-10",78.08,53.96,,,
"USR0000AKLA","1994-08-11",77.00,53.06,,,
"USR0000AKLA","1994-08-12",66.92,48.92,,,
"USR0000AKLA","1994-08-13",62.96,44.06,,,
"USR0000AKLA","1994-08-14",69.08,44.06,,,
"USR0000AKLA","1994-08-15",71.96,44.96,,,
"USR0000AKLA","1994-08-16",73.04,51.98,,,
"USR0000AKLA","1994-08-17",77.00,48.92,,,
"USR0000AKLA","1994-08-18",68.00,51.98,,,
"USR0000AKLA","1994-08-19",73.04,44.96,,,
"USR0000AKLA","1994-08-20",62.06,48.02,,,
"USR0000AKLA","1994-08-21",48.92,39.02,,,
"USR0000AKLA","1994-08-22",53.06,37.04,,,
"USR0000AKLA","1994-08-23",55.04,35.06,,,
"USR0000AKLA","1994-08-24",55.04,44.06,,,
"USR0000AKLA","1994-08-25",60.98,46.94,,,
"USR0000AKLA","1994-08-26",64.94,53.96,,,
"USR0000AKLA","1994-08-27",57.92,42.08,,,
"USR0000AKLA","1994-08-28",51.98,35.96,,,
"USR0000AKLA","1994-08-29",53.06,37.94,,,
"USR0000AKLA","1994-08-30",57.92,37.04,,,
"USR0000AKLA","1994-08-31",53.96,39.02,,,
"USR0000AKLA","1994-09-01",46.04,37.94,,,
"USR0000AKLA","1994-09-02",51.08,33.98,,,
"USR0000AKLA","1994-09-03",57.92,33.08,,,
"USR0000AKLA","1994-09-04",57.02,33.98,,,
"USR0000AKLA","1994-09-05",55.94,32.00,,,
"USR0000AKLA","1994-09-06",53.06,30.02,,,
"USR0000AKLA","1994-09-07",57.02,28.94,,,
"USR0000AKLA","1994-09-08",48.02,35.06,,,
"USR0000AKLA","1994-09-09",51.08,32.00,,,
"USR0000AKLA","1994-09-10",51.08,30.02,,,
"USR0000AKLA","1994-09-11",46.04,37.94,,,
"USR0000AKLA","1994-09-12",48.92,33.98,,,
"USR0000AKLA","1994-09-13",53.06,28.94,,,
"USR0000AKLA","1994-09-14",53.06,41.00,,,
"USR0000AKLA","1994-09-15",55.94,41.00,,,
"USR0000AKLA","1994-09-16",53.06,39.92,,,
"USR0000AKLA","1994-09-17",53.96,35.06,,,
"USR0000AKLA","1994-09-18",42.98,35.96,,,
"USR0000AKLA","1994-09-19",46.94,37.04,,,
"USR0000AKLA","1994-09-20",48.02,33.98,,,
"USR0000AKLA","1994-09-21",46.04,33.98,,,
"USR0000AKLA","1994-09-22",42.08,35.06,,,
"USR0000AKLA","1994-09-23",44.96,33.08,,,
"USR0000AKLA","1994-09-24",35.96,30.92,,,
"USR0000AKLA","1994-09-25",39.02,32.00,,,
"USR0000AKLA","1994-09-26",39.92,26.96,,,
"USR0000AKLA","1994-09-27",37.94,24.08,,,
"USR0000AKLA","1994-09-28",41.00,26.06,,,
"USR0000AKLA","1994-09-29",39.02,23.00,,,
"USR0000AKLA","1994-09-30",39.92,17.96,,,